User: anonymous   Login
Location: Unspecified
(0.0000°N, 0.0000°E)
Time: 03:38:31
(UTC+02:00)
Language:

Cosmos 2251 - Orbit

View from above orbital plane
View from above orbital plane
View from above satellite
View from above satellite

Ground track
Ground track

The orbit data is extracted from the following two-line orbital elements,

1 22675U 93036A   18172.57703637 -.00000009 +00000-0 +64418-5 0  9998
2 22675 074.0401 261.9473 0026139 290.4795 069.3550 14.32521672306638
Epoch (UTC): 21 June 2018 13:50:55
Eccentricity: 0.0026139
inclination: 74.0401°
perigee height: 764 km
apogee height: 802 km
right ascension of ascending node: 261.9473°
argument of perigee: 290.4795°
revolutions per day: 14.32521672
mean anomaly at epoch: 69.3550°
orbit number at epoch: 30663

The dashed part of the orbit path shows where the satellite is in the earth's shadow,  

DLR